Sanford, ME

9:25 AM EDT on March 25, 2017 (GMT -0400)
Sanford Regional

Weather History for KSFM - March, 2013

Change the Weather History Date:

Tuesday, March 26, 2013

  Actual Average Record
Temperature  
Mean Temperature 38 °F -  
Max Temperature 48 °F 44 °F 60 °F (2004)
Min Temperature 28 °F 27 °F 14 °F (2005)
Degree Days  
Heating Degree Days 27    
Moisture  
Dew Point 19 °F    
Average Humidity 49    
Maximum Humidity 75    
Minimum Humidity 27    
Precipitation  
Precipitation 0.00 in - - ()
Sea Level Pressure  
Sea Level Pressure 29.64 in    
Wind  
Wind Speed 11 mph (NNW)    
Max Wind Speed 18 mph    
Max Gust Speed 25 mph    
Visibility 10 miles    
Events      
Averages and records for this station are not official NWS values.
T = Trace of Precipitation, MM = Missing Value Source: NWS Daily Summary

Daily Weather History Graph

Daily Weather History Graph

Search for Another Location

Airport or City:

Trip Planner

Search our weather history database for the weather conditions in past years. The results will help you decide how hot, cold, wet, or windy it might be!

Date:

Astronomy

Mar. 26, 2013 Rise Set
Actual Time 6:34 AM EDT 7:02 PM EDT
Civil Twilight 6:06 AM EDT 7:31 PM EDT
Nautical Twilight 5:32 AM EDT 8:05 PM EDT
Astronomical Twilight 4:57 AM EDT 8:39 PM EDT
Moon 6:36 PM EDT (3/26) 5:50 AM EDT (3/26)
Length of Visible Light 13h 24m
Length of Day
12h 27m
Waxing Gibbous, 99% of the Moon is Illuminated
Mar 26
Waxing Gibbous
Mar 27
Full
Apr 3
Last Quarter
Apr 10
New
Apr 18
First Quarter

Hourly Weather History & Observations

Time (EDT) Temp. Windchill Dew Point Humidity Pressure Visibility Wind Dir Wind Speed Gust Speed Precip Events Conditions
12:15 AM 35.6 °F 27.1 °F 21.2 °F 56% 29.56 in 10.0 mi North 12.7 mph - N/A   Overcast
12:35 AM 35.6 °F 26.6 °F 21.2 °F 56% 29.56 in 10.0 mi NNE 13.8 mph - N/A   Overcast
12:55 AM 35.6 °F 27.5 °F 24.8 °F 65% 29.56 in 10.0 mi North 11.5 mph - N/A   Overcast
1:15 AM 35.6 °F 26.6 °F 24.8 °F 65% 29.56 in 10.0 mi NNE 13.8 mph 19.6 mph N/A   Overcast
1:35 AM 35.6 °F 25.9 °F 21.2 °F 56% 29.56 in 10.0 mi NNE 16.1 mph - N/A   Overcast
1:55 AM 35.6 °F 26.6 °F 21.2 °F 56% 29.56 in 10.0 mi North 13.8 mph - N/A   Overcast
2:15 AM 35.6 °F 27.1 °F 21.2 °F 56% 29.56 in 10.0 mi North 12.7 mph 19.6 mph N/A   Overcast
2:35 AM 35.6 °F 27.5 °F 26.6 °F 70% 29.56 in 10.0 mi North 11.5 mph - N/A   Overcast
2:55 AM 35.6 °F 27.5 °F 21.2 °F 56% 29.56 in 10.0 mi North 11.5 mph - N/A   Overcast
3:15 AM 35.6 °F 27.5 °F 21.2 °F 56% 29.55 in 10.0 mi North 11.5 mph - N/A   Overcast
3:35 AM 33.8 °F 24.8 °F 21.2 °F 60% 29.55 in 10.0 mi North 12.7 mph - N/A   Overcast
3:55 AM 33.8 °F 24.8 °F 23.0 °F 65% 29.55 in 10.0 mi North 12.7 mph - N/A   Overcast
4:15 AM 33.8 °F 25.3 °F 24.8 °F 70% 29.56 in 10.0 mi North 11.5 mph 17.3 mph N/A   Scattered Clouds
4:35 AM 33.8 °F 24.8 °F 21.2 °F 60% 29.56 in 10.0 mi North 12.7 mph 17.3 mph N/A   Clear
4:55 AM 33.8 °F 26.4 °F 21.2 °F 60% 29.56 in 10.0 mi North 9.2 mph 16.1 mph N/A   Clear
5:15 AM 32.0 °F 24.8 °F 21.2 °F 64% 29.57 in 10.0 mi North 8.1 mph - N/A   Clear
5:35 AM 32.0 °F 24.8 °F 24.8 °F 75% 29.57 in 10.0 mi North 8.1 mph - N/A   Clear
5:55 AM 32.0 °F 23.6 °F 21.2 °F 64% 29.58 in 10.0 mi North 10.4 mph - N/A   Clear
6:15 AM 32.0 °F 24.8 °F 19.4 °F 60% 29.59 in 10.0 mi NNW 8.1 mph - N/A   Clear
6:35 AM 30.2 °F 21.9 °F 19.4 °F 64% 29.59 in 10.0 mi North 9.2 mph - N/A   Clear
6:55 AM 30.2 °F 21.3 °F 23.0 °F 75% 29.60 in 10.0 mi North 10.4 mph - N/A   Clear
7:15 AM 32.0 °F 23.0 °F 19.4 °F 60% 29.61 in 10.0 mi North 11.5 mph - N/A   Clear
7:35 AM 33.8 °F 25.3 °F 15.8 °F 48% 29.62 in 10.0 mi North 11.5 mph - N/A   Clear
7:55 AM 33.8 °F 25.8 °F 19.4 °F 56% 29.62 in 10.0 mi North 10.4 mph - N/A   Clear
8:15 AM 35.6 °F 28.0 °F 23.0 °F 60% 29.62 in 10.0 mi NNW 10.4 mph - N/A   Clear
8:35 AM 35.6 °F 26.6 °F 17.6 °F 48% 29.63 in 10.0 mi NNW 13.8 mph - N/A   Clear
8:55 AM 37.4 °F 28.9 °F 15.8 °F 41% 29.63 in 10.0 mi NNW 13.8 mph 19.6 mph N/A   Clear
9:15 AM 37.4 °F 28.9 °F 17.6 °F 45% 29.63 in 10.0 mi North 13.8 mph 18.4 mph N/A   Clear
9:35 AM 37.4 °F 27.5 °F 21.2 °F 52% 29.63 in 10.0 mi North 18.4 mph 25.3 mph N/A   Clear
9:55 AM 39.2 °F 30.8 °F 19.4 °F 45% 29.64 in 10.0 mi North 15.0 mph 23.0 mph N/A   Clear
10:15 AM 39.2 °F 30.5 °F 17.6 °F 42% 29.64 in 10.0 mi NNE 16.1 mph 24.2 mph N/A   Clear
10:35 AM 39.2 °F 30.5 °F 17.6 °F 42% 29.64 in 10.0 mi North 16.1 mph 21.9 mph N/A   Partly Cloudy
10:55 AM 39.2 °F 30.8 °F 17.6 °F 42% 29.65 in 10.0 mi North 15.0 mph - N/A   Partly Cloudy
11:15 AM 42.8 °F 35.4 °F 15.8 °F 34% 29.65 in 10.0 mi North 15.0 mph 20.7 mph N/A   Partly Cloudy
11:35 AM 42.8 °F 36.2 °F 17.6 °F 36% 29.65 in 10.0 mi NNW 12.7 mph 18.4 mph N/A   Partly Cloudy
11:55 AM 42.8 °F 35.4 °F 15.8 °F 34% 29.65 in 10.0 mi North 15.0 mph 19.6 mph N/A   Partly Cloudy
12:15 PM 42.8 °F 35.4 °F 17.6 °F 36% 29.65 in 10.0 mi NNW 15.0 mph 19.6 mph N/A   Clear
12:35 PM 42.8 °F 37.0 °F 17.6 °F 36% 29.65 in 10.0 mi North 10.4 mph 18.4 mph N/A   Clear
12:55 PM 44.6 °F 37.8 °F 15.8 °F 31% 29.64 in 10.0 mi North 15.0 mph 19.6 mph N/A   Clear
1:15 PM 44.6 °F 39.2 °F 17.6 °F 34% 29.65 in 10.0 mi NW 10.4 mph 16.1 mph N/A   Clear
1:35 PM 44.6 °F 39.2 °F 17.6 °F 34% 29.65 in 10.0 mi North 10.4 mph 18.4 mph N/A   Clear
1:55 PM 46.4 °F 40.7 °F 15.8 °F 29% 29.64 in 10.0 mi WNW 12.7 mph 20.7 mph N/A   Clear
2:15 PM 44.6 °F 39.2 °F 14.0 °F 29% 29.64 in 10.0 mi NW 10.4 mph 20.7 mph N/A   Clear
2:35 PM 46.4 °F 40.7 °F 15.8 °F 29% 29.64 in 10.0 mi North 12.7 mph 16.1 mph N/A   Clear
2:55 PM 46.4 °F 40.7 °F 15.8 °F 29% 29.64 in 10.0 mi NNW 12.7 mph 16.1 mph N/A   Clear
3:15 PM 46.4 °F 41.5 °F 15.8 °F 29% 29.64 in 10.0 mi WNW 10.4 mph 19.6 mph N/A   Partly Cloudy
3:35 PM 46.4 °F 40.1 °F 14.0 °F 27% 29.63 in 10.0 mi WNW 15.0 mph - N/A   Mostly Cloudy
3:55 PM 48.2 °F - 15.8 °F 27% 29.63 in 10.0 mi NNW 11.5 mph 23.0 mph N/A   Mostly Cloudy
4:15 PM 48.2 °F - 15.8 °F 27% 29.64 in 10.0 mi NW 8.1 mph 18.4 mph N/A   Mostly Cloudy
4:35 PM 48.2 °F - 15.8 °F 27% 29.64 in 10.0 mi WNW 8.1 mph - N/A   Scattered Clouds
4:55 PM 46.4 °F 42.4 °F 17.6 °F 32% 29.64 in 10.0 mi NW 8.1 mph - N/A   Clear
5:15 PM 46.4 °F 41.5 °F 17.6 °F 32% 29.65 in 10.0 mi NNW 10.4 mph - N/A   Partly Cloudy
5:35 PM 46.4 °F 42.4 °F 15.8 °F 29% 29.65 in 10.0 mi NW 8.1 mph - N/A   Scattered Clouds
5:55 PM 46.4 °F 41.1 °F 17.6 °F 32% 29.66 in 10.0 mi North 11.5 mph - N/A   Mostly Cloudy
6:15 PM 44.6 °F 40.2 °F 19.4 °F 37% 29.67 in 10.0 mi North 8.1 mph - N/A   Partly Cloudy
6:35 PM 44.6 °F 40.7 °F 17.6 °F 34% 29.68 in 10.0 mi North 6.9 mph - N/A   Mostly Cloudy
6:55 PM 44.6 °F 40.2 °F 17.6 °F 34% 29.68 in 10.0 mi North 8.1 mph - N/A   Scattered Clouds
7:35 PM 42.8 °F 38.0 °F 19.4 °F 39% 29.70 in 10.0 mi North 8.1 mph - N/A   Clear
7:55 PM 41.0 °F 35.8 °F 19.4 °F 42% 29.71 in 10.0 mi North 8.1 mph - N/A   Clear
8:15 PM 41.0 °F 37.1 °F 19.4 °F 42% 29.72 in 10.0 mi NNW 5.8 mph - N/A   Clear
8:36 PM 39.2 °F 35.9 °F 17.6 °F 42% 29.72 in 10.0 mi WNW 4.6 mph - N/A   Clear
8:55 PM 35.6 °F 32.8 °F 21.2 °F 56% 29.73 in 10.0 mi West 3.5 mph - N/A   Clear
9:15 PM 30.2 °F 24.3 °F 23.0 °F 75% 29.74 in 10.0 mi West 5.8 mph - N/A   Clear
9:35 PM 33.8 °F 28.6 °F 21.2 °F 60% 29.74 in 10.0 mi WNW 5.8 mph - N/A   Clear
9:55 PM 30.2 °F 25.4 °F 21.2 °F 69% 29.74 in 10.0 mi WNW 4.6 mph - N/A   Clear
10:15 PM 30.2 °F 25.4 °F 21.2 °F 69% 29.74 in 10.0 mi WNW 4.6 mph - N/A   Clear
10:35 PM 28.4 °F 24.6 °F 21.2 °F 74% 29.74 in 10.0 mi WNW 3.5 mph - N/A   Clear
10:55 PM 33.8 °F 29.6 °F 19.4 °F 56% 29.74 in 10.0 mi NW 4.6 mph - N/A   Clear
11:15 PM 28.4 °F 24.6 °F 21.2 °F 74% 29.74 in 10.0 mi WNW 3.5 mph - N/A   Clear
11:35 PM 28.4 °F - 21.2 °F 74% 29.74 in 10.0 mi Calm Calm - N/A   Clear
11:55 PM 33.8 °F 28.6 °F 17.6 °F 52% 29.74 in 10.0 mi WNW 5.8 mph - N/A   Clear